This is the latest recevied weather packets stored in our database for station/object K0NV. If no packets are shown the sender has not sent any weather packets the latest 10 day(s).
| Time | Temp. | Humidity | Pressure | Rain* | Wind** | Luminosity | Snow |
|---|---|---|---|---|---|---|---|
| 1778001844 | 12.78° C | 86% | 1009.1 hPa | 0 mm | - | 158 W/m² | - |
| 1778001543 | 12.22° C | 87% | 1009.1 hPa | 0 mm | - | 225 W/m² | - |
| 1778001240 | 12.22° C | 87% | 1009.4 hPa | 0 mm | - | 151 W/m² | - |
| 1778000937 | 12.78° C | 86% | 1009.2 hPa | 0 mm | - | 155 W/m² | - |
| 1778000634 | 12.78° C | 86% | 1009.2 hPa | 0 mm | - | 288 W/m² | - |
| 1778000329 | 12.78° C | 87% | 1009.4 hPa | 0 mm | - | 284 W/m² | - |
| 1778000025 | 12.78° C | 87% | 1009.2 hPa | 0 mm | - | 171 W/m² | - |
| 1777999721 | 12.78° C | 86% | 1009.5 hPa | 0 mm | - | 176 W/m² | - |
| 1777999417 | 12.78° C | 86% | 1009 hPa | 0 mm | - | 316 W/m² | - |
| 1777999116 | 13.33° C | 86% | 1009.1 hPa | 0 mm | - | 249 W/m² | - |
| 1777998814 | 12.78° C | 86% | 1009.1 hPa | 0 mm | - | 297 W/m² | - |
| 1777998513 | 12.78° C | 86% | 1009 hPa | 0 mm | - | 271 W/m² | - |
| 1777998208 | 12.78° C | 86% | 1008.8 hPa | 0 mm | - | 332 W/m² | - |
| 1777997905 | 12.78° C | 86% | 1009 hPa | 0 mm | - | 202 W/m² | - |
| 1777997603 | 13.33° C | 86% | 1009.2 hPa | 0 mm | - | 243 W/m² | - |
| 1777997300 | 13.33° C | 86% | 1009.1 hPa | 0 mm | - | 161 W/m² | - |
| 1777996998 | 13.33° C | 86% | 1009.2 hPa | 0 mm | - | 101 W/m² | - |
| 1777996694 | 13.33° C | 86% | 1009.1 hPa | 0 mm | - | 120 W/m² | - |
| 1777996390 | 13.33° C | 86% | 1009.4 hPa | 0 mm | - | 104 W/m² | - |
| 1777996086 | 13.89° C | 86% | 1009.6 hPa | 0 mm | - | 97 W/m² | - |
| 1777995783 | 13.89° C | 87% | 1009.6 hPa | 0 mm | - | 71 W/m² | - |
| 1777995479 | 13.89° C | 87% | 1009.5 hPa | 0 mm | - | 79 W/m² | - |
| 1777995176 | 13.89° C | 87% | 1009.6 hPa | 0 mm | - | 61 W/m² | - |
| 1777994874 | 13.89° C | 87% | 1009.1 hPa | 0 mm | - | 92 W/m² | - |
| 1777994570 | 13.89° C | 87% | 1009 hPa | 0 mm | - | 117 W/m² | - |
* Rain latest hour (hover to see other rain measurements)
** Current wind speed in m/s (hover to see current wind gust speed)